#timestamp,LO_Frequency,Hit,StdDev 
1585346415.1,286047002.6,N
1585346416.0,286047002.6,N
1585346435.8,286047004.3,N
1585346455.7,286047005.1,N
1585346475.5,286047006.0,N
1585346495.3,286047002.1,N
1585346515.2,286047008.4,N
1585346535.0,286047015.8,Y
1585346535.9,286047015.8,P
1585346555.8,286047015.6,N
1585346575.6,286047017.4,N
1585346595.4,286047022.1,N
1585346615.3,286047022.8,N
1585346635.1,286047026.8,Y
1585346655.8,286047020.1,P
1585346675.7,286047019.7,P
1585346695.5,286047031.0,P
1585346715.4,286047034.9,Y
1585346735.2,286047017.9,P
1585346755.0,286047025.1,P
1585346755.9,286047025.1,P
1585346775.8,286047023.3,Y
1585346795.6,286047007.5,P
1585346815.5,286047009.0,N
1585346835.3,286047009.0,N
1585346855.1,286047013.3,N
1585346875.9,286047014.8,N
1585346895.7,286047016.3,Y
1585346915.5,286047005.7,P
1585346935.4,286047004.5,N
1585346955.2,286047006.4,N
1585346975.1,286047010.3,Y
1585346976.0,286047010.3,P
1585346995.8,286047000.7,N
1585347015.6,286047003.5,N
1585347035.5,286047001.6,N
1585347055.3,286047002.9,N
1585347075.1,286047003.3,N
1585347095.9,286047005.4,N
1585347115.7,286047003.8,N
1585347135.6,286047004.3,N
1585347155.4,286047012.2,Y
1585347175.2,286047009.2,P
1585347195.1,286047005.7,N
1585347196.0,286047005.7,N
1585347215.8,286047005.3,N
1585347235.7,286047007.3,Y
1585347255.5,286047004.2,P
1585347275.3,286047006.2,P
1585347295.2,286047004.4,P
1585347315.0,286047003.1,Y
1585347315.9,286047003.1,P
1585347335.8,286047004.2,P
1585347355.6,286047004.9,P
1585347375.4,286047003.1,Y
1585347395.3,286047011.9,P
1585347415.1,286047002.8,N
1585347435.8,286047006.1,N
1585347455.7,286047004.5,N
1585347475.5,286047007.4,N
1585347495.4,286047010.8,Y
1585347515.2,286047004.3,P
1585347535.0,286047004.6,P
1585347535.9,286047004.6,P
1585347555.8,286047007.9,Y
1585347575.6,286047007.6,P
1585347595.5,286046998.5,N
1585347615.3,286046997.8,N
1585347635.1,286046995.8,N
1585347655.9,286046999.1,N
1585347675.7,286047002.4,N
1585347695.5,286047003.6,N
1585347715.4,286047005.3,N
1585347735.2,286047000.2,N
1585347755.1,286047004.6,N
1585347756.0,286047004.6,N
1585347775.8,286047003.7,N
1585347795.6,286047004.9,N
1585347815.5,286047003.0,N
1585347835.3,286046995.2,N
1585347855.1,286047002.8,N
1585347875.9,286047003.0,N
1585347895.7,286047003.9,N
1585347915.6,286047005.1,N
1585347935.4,286047008.6,N
1585347955.2,286047008.0,N
1585347975.1,286047010.3,N
1585347976.0,286047010.3,N
1585347995.8,286047006.6,N
1585348015.6,286047006.9,N
1585348035.5,286047009.0,N
1585348055.3,286047008.4,N
1585348075.2,286047005.6,N
1585348095.9,286047007.2,N
1585348115.7,286047004.9,N
1585348135.6,286047005.0,N
1585348155.4,286047006.2,N
1585348175.2,286047008.7,N
1585348195.1,286047004.7,N
1585348196.0,286047004.7,N
1585348215.8,286047011.6,Y
1585348235.7,286047007.8,P
1585348255.5,286047014.0,P
1585348275.3,286047013.0,P
1585348295.2,286047016.8,Y
1585348315.0,286047003.6,P
1585348315.9,286047003.6,N
1585348335.8,286046998.7,N
1585348355.6,286046999.3,N
1585348375.4,286046994.3,N
1585348395.3,286046990.1,N
1585348415.1,286046993.5,N
1585348435.8,286046993.6,N
1585348455.7,286046994.6,N
1585348475.5,286046996.2,N
1585348495.4,286046990.1,N
1585348515.2,286046990.5,N
1585348535.0,286046994.2,N
1585348535.9,286046994.2,N
1585348555.8,286046995.1,N
1585348575.6,286046998.2,N
1585348595.4,286047001.6,N
1585348615.3,286047006.0,N
1585348635.1,286047001.6,N
1585348655.9,286047002.0,N
1585348675.7,286047005.1,N
1585348695.5,286047003.4,N
1585348715.4,286047000.9,N
1585348735.2,286047003.2,N
1585348755.0,286047007.2,N
1585348755.9,286047007.2,N
1585348775.8,286047006.8,N
1585348795.6,286047005.1,N
1585348815.5,286047005.0,N
1585348835.3,286047009.2,N
1585348855.1,286047011.8,N
1585348875.9,286047014.8,N
1585348895.7,286047017.1,N
1585348915.5,286047017.8,N
1585348935.4,286047018.5,N
1585348955.2,286047021.3,N
1585348975.1,286047024.6,N
1585348976.0,286047024.6,N
1585348995.8,286047022.7,N
1585349015.6,286047019.6,N
1585349035.5,286047020.7,N
1585349055.3,286047021.6,N
1585349075.1,286047016.3,N
1585349095.9,286047014.1,N
1585349115.7,286047018.8,N
1585349135.6,286047018.2,N
1585349155.4,286047018.3,N
1585349175.2,286047013.5,N
1585349195.1,286047014.7,N
1585349196.0,286047014.7,N
1585349215.8,286047016.8,N
1585349235.6,286047016.2,N
1585349255.5,286047019.5,Y
1585349275.3,286047004.5,P
1585349295.2,286047004.9,N
1585349315.9,286047007.6,N
1585349335.7,286047004.5,N
1585349355.6,286047008.7,N
1585349375.4,286047009.6,N
1585349395.3,286047012.9,Y
1585349415.1,286047001.7,P
1585349416.0,286047001.7,N
1585349435.8,286047003.8,N
1585349455.7,286047001.1,N
1585349475.5,286046998.7,N
1585349495.3,286046998.8,N
1585349515.2,286047005.5,N
1585349535.0,286047006.0,N
1585349535.9,286047006.0,N
1585349555.8,286047007.6,N
1585349575.6,286047003.9,N
1585349595.4,286047001.8,N
1585349615.3,286047004.0,N
1585349635.1,286047007.6,N
1585349655.8,286047008.5,N
1585349675.7,286047012.0,Y
1585349695.5,286047011.2,P
1585349715.4,286047006.6,N
1585349735.2,286047002.6,N
1585349755.0,286047002.2,N
1585349755.9,286047002.2,N
1585349775.8,286047005.9,N
1585349795.6,286047004.3,N
1585349815.5,286047002.4,N
1585349835.3,286047000.2,N
1585349855.1,286047002.8,N
1585349875.9,286047003.8,N
1585349895.7,286047005.4,N
1585349915.5,286047013.6,Y
1585349935.4,286047012.0,P
1585349955.2,286047014.4,P
1585349975.1,286047014.0,P
1585349976.0,286047014.0,Y
1585349995.8,286047005.8,P
